This demonstration page uses our WeatherBlox Daily Observations layout. Learn more.

Left ArrowRight Arrow

34.02893, -84.19858

Hourly Observations for November 5, 2016

Temp ( °F °C ) Dew Point ( °F °C ) Humidity (%) Winds ( mph kmh ) Pressure ( in mb ) Visibility ( mi km ) Precip ( " mm )
12:53 am 00:53 Clear 53 11.7 43 6.1 69 69 Calm 30.22 1023 10 16 0.00 0.00
1:53 am 01:53 Clear 58 14.4 43 6.1 58 58 ENE 5 7 30.23 1024 10 16 0.00 0.00
2:53 am 02:53 Clear 56 13.3 43 6.1 62 62 E 3 6 30.24 1024 10 16 0.00 0.00
3:53 am 03:53 Clear 54 12.2 41 5 62 62 VRB 3 6 30.24 1024 10 16 0.00 0.00
4:53 am 04:53 Clear 54 12.2 40 4.4 59 59 ENE 3 6 30.24 1024 10 16 0.00 0.00
5:53 am 05:53 Clear 53 11.7 40 4.4 61 61 ENE 5 7 30.26 1025 10 16 0.00 0.00
6:53 am 06:53 Clear 52 11.1 40 4.4 64 64 VRB 3 6 30.29 1026 10 16 0.00 0.00
7:53 am 07:53 Clear 51 10.6 39 3.9 64 64 ENE 5 7 30.32 1027 10 16 0.00 0.00
8:53 am 08:53 Sunny 53 11.7 39 3.9 59 59 ENE 6 9 30.34 1027 10 16 0.00 0.00
9:53 am 09:53 Sunny 57 13.9 39 3.9 51 51 ENE 5 7 30.36 1028 10 16 0.00 0.00
10:53 am 10:53 Sunny 61 16.1 40 4.4 46 46 VRB 5 7 30.37 1028 10 16 0.00 0.00
11:53 am 11:53 Sunny 63 17.2 40 4.4 43 43 VRB 7 11 30.36 1028 10 16 0.00 0.00
12:53 pm 12:53 Sunny 66 18.9 39 3.9 37 37 Calm 30.34 1028 10 16 0.00 0.00
1:53 pm 13:53 Sunny 69 20.6 39 3.9 33 33 VRB 5 7 30.29 1026 10 16 0.00 0.00
2:53 pm 14:53 Sunny 71 21.7 39 3.9 31 31 VRB 3 6 30.27 1025 10 16 0.00 0.00
3:53 pm 15:53 Sunny 70 21.1 39 3.9 32 32 Calm 30.26 1025 10 16 0.00 0.00
4:53 pm 16:53 Sunny 70 21.1 39 3.9 32 32 VRB 5 7 30.25 1025 10 16 0.00 0.00
5:53 pm 17:53 Sunny 68 20 39 3.9 35 35 Calm 30.26 1025 10 16 0.00 0.00
6:53 pm 18:53 Clear 62 16.7 40 4.4 44 44 Calm 30.26 1025 10 16 0.00 0.00
7:53 pm 19:53 Clear 57 13.9 43 6.1 60 60 Calm 30.28 1025 10 16 0.00 0.00
8:53 pm 20:53 Clear 56 13.3 44 6.7 65 65 Calm 30.28 1026 10 16 0.00 0.00
9:53 pm 21:53 Clear 52 11.1 44 6.7 75 75 Calm 30.30 1026 10 16 0.00 0.00
10:53 pm 22:53 Clear 52 11.1 44 6.7 75 75 Calm 30.31 1026 10 16 0.00 0.00
11:53 pm 23:53 Clear 51 10.6 44 6.7 77 77 Calm 30.31 1026 10 16 0.00 0.00

Powered by AerisWeather